Regional Weather Roundup
Issued by NWS Charleston, SC

Current Version | Previous Version | Graphics & Text | Print | Product List | Glossary On
Versions: 1 2 3 4 5 6 7 8 9 10 11 12 13 14 15 16 17 18 19 20 21 22 23 24 25 26 27 28 29 30 31 32 33 34 35 36 37 38 39 40 41 42 43 44 45 46 47 48 49 50
000
ASUS42 KCHS 301211
RWRCHS

REGIONAL WEATHER ROUNDUP
NATIONAL WEATHER SERVICE CHARLESTON SC
700 AM EST FRI JAN 30 2015

NOTE: "FAIR" INDICATES FEW OR NO CLOUDS BELOW 12,000 FEET WITH NO
SIGNIFICANT WEATHER AND/OR OBSTRUCTIONS TO VISIBILITY.

NOT ALL STATIONS ARE QUALITY CONTROLLED BY THE NATIONAL
WEATHER SERVICE. USE DATA WITH CAUTION...ESPECIALLY
DEWPOINT OBSERVATIONS.

SCZ027-030-031-034>040-042>050-301300-
...SOUTHEAST SOUTH CAROLINA...

CITY           SKY/WX    TMP DP  RH WIND       PRES   REMARKS
N CHARLESTON   CLOUDY    53  44  71 W9        30.03R
6HR MIN TEMP:  50; 6HR MAX TEMP:  54; 6HR PCP: TRACE;

WATERFRONT PRK   N/A     52 N/A N/A SW6         N/A
MOUNT PLEASANT PTSUNNY   54  45  71 W7        30.02S
PINOPOLIS        N/A     52  45  76 W7        29.92S
MONCKS CORNER  CLOUDY    52  45  76 W5        30.02S
SUMMERVILLE    PTSUNNY   54  45  71 W10G16    30.05R
BEAUFORT MCAS  CLOUDY    54  45  71 W12       30.07R
6HR MIN TEMP:  51; 6HR MAX TEMP:  55;

BEAUFORT ARPT  FAIR      54  46  76 W12G17    30.07R
HILTON HEAD IS CLEAR     54  46  76 W10G17    30.08
WALTERBORO     MOSUNNY   54  43  66 W7        30.06R
ALLENDALE      FAIR      52  43  71 VRB7      30.07R

...SOUTHERN MIDLANDS AND PEE DEE...

CITY           SKY/WX    TMP DP  RH WIND       PRES   REMARKS
GEORGETOWN     NOT AVBL
KINGSTREE      NOT AVBL
ORANGEBURG     CLEAR     50  38  63 NW9       30.05R
6HR MIN TEMP:  48; 6HR MAX TEMP:  53;

BARNWELL       FAIR      52  39  62 NW12      30.08R
AIKEN          FAIR      45  37  76 W9        30.12R
MANNING        FAIR      52  37  58 NW3       30.03R
COLUMBIA       PTCLDY    48  32  53 N8        30.08R
6HR MIN TEMP:  48; 6HR MAX TEMP:  53;

SUMTER         PTCLDY    49  34  56 NW9       30.03R
6HR MIN TEMP:  45; 6HR MAX TEMP:  52;

FLORENCE       CLOUDY    49  35  58 NW9       30.03R
6HR MIN TEMP:  49; 6HR MAX TEMP:  51;

MYRTLE BEACH   NOT AVBL
N MYRTLE BEACH CLOUDY    50  45  83 W7        29.98F
6HR MIN TEMP:  50; 6HR MAX TEMP:  54; 6HR PCP:  0.03;


$$

GAZ063-065-086>088-099>101-113>116-118-119-134>141-150-301300-
...SOUTHEAST GEORGIA...

CITY           SKY/WX    TMP DP  RH WIND       PRES   REMARKS
SAVANNAH ARPT  CLOUDY    53  45  74 W12       30.09R
6HR MIN TEMP:  50; 6HR MAX TEMP:  53;

HUNTER AAF     CLOUDY    51  47  84 W10       30.07R
6HR MIN TEMP:  51; 6HR MAX TEMP:  52;

FORT STEWART   CLOUDY    53  47  78 W9        30.10R
6HR MIN TEMP:  51; 6HR MAX TEMP:  54;

STATESBORO     PTCLDY    51  46  81 NW10      30.10R
SYLVANIA       MOSUNNY   51  46  83 NW9       30.10R
CLAXTON        FAIR      54  50  87 W10       30.11R

...CSRA...CENTRAL AND FAR SOUTHEAST GEORGIA...

CITY           SKY/WX    TMP DP  RH WIND       PRES   REMARKS
THOMSON        CLEAR     46  36  68 NW13G22   30.19R
AUGUSTA-BUSH   CLEAR     48  37  65 NW14      30.12R
6HR MIN TEMP:  46; 6HR MAX TEMP:  52;

AUGUSTA-DANIEL CLEAR     48  36  63 NW15G24   30.12R
SWAINSBORO     FAIR      50  34  53 NW22      30.14R
VIDALIA        PTCLDY    52  48  87 NW7       30.12S
EASTMAN        FAIR      51  42  72 NW9       30.19R
HAZLEHURST     PTSUNNY   54  52  93 NW5       30.13R
ALMA           MOCLDY    52  48  86 W7        30.13R
6HR MIN TEMP:  49; 6HR MAX TEMP:  52;

WAYCROSS       MOCLDY    55  52  92 W5        30.13R
JESUP          FAIR      55  50  82 W5        30.12R
BAXLEY         FAIR      55  50  82 W8        30.12R
BRUNSWICK      MOCLDY    54  46  76 W8        30.12S
SAINT SIMONS   CLOUDY    53  48  83 W8        30.12R
6HR MIN TEMP:  49; 6HR MAX TEMP:  53;


$$

SCZ027-028-034-036>038-045-046-048>050-GAZ119-141-301300-
...LAKE AND SUPPLEMENTAL COASTAL OBSERVATIONS...

STATION/POSITION TIME  TEMP    WIND        PRES    WAVE   SWELL
                       AIR SEA DIR/SP/G            HT/PER HT/PER/DIR
                 (UTC) (F)     (DEG/KT/KT) (MB)    (FT/S) (FT/S/D)
UPR LAKE MARION  NOT AVBL
WINYAH BAY       NOT AVBL
LAKE MURRAY      1100   48     340/  2/  6 1017.3R
ACE BASIN NERRS  NOT AVBL
FORT PULASKI     1100   53 52  250/  9/ 12 1018.4S
SAPELO ISLAND    NOT AVBL

$$

ANZ835-935-AMZ111-154-330-350-352-354-370-450-454-472-301300-
...C-MAN AND BUOY OBSERVATIONS...

STATION/POSITION TIME  TEMP    WIND        PRES    WAVE   SWELL
                       AIR SEA DIR/SP/G            HT/PER HT/PER/DIR
                 (UTC) (F)     (DEG/KT/KT) (MB)    (FT/S) (FT/S/D)
BUOY 41004       1150   61 68  250/ 23/ 29 1015.7F   5/ 6   2/10
BUOY 41008       1150   54 54  260/ 16/ 19 1018.8R   3/11   2/240/11
FOLLY BEACH CMAN 1200   51     240/  6/  8 1017.4R
CAPERS NEARSHORE NOT AVBL
FRIPP NEARSHORE  NOT AVBL


STATION/POSITION TIME  TEMP    WIND        PRES    WAVE   SWELL
                       AIR SEA DIR/SP/G            HT/PER HT/PER/DIR
                 (UTC) (F)     (DEG/KT/KT) (MB)    (FT/S) (FT/S/D)
5E ST. MARYS GA  1121      56                N/A     3/11   2/ 90/11
FRYING PAN BUOY  1150   61 65  250/ 21/ 25 1014.8F   7/ 6
BUOY 41025       1150   59 69  270/ 25/ 29 1012.9F   6/ 6   2/ 60/11
CAPE LOOKOUT NC  1200   52     270/ 14/ 17 1014.2S
BUOY 41002       1150   66 71  220/ 21/ 27 1017.3F   5/10   3/ 40/10
BUOY 41010       1120   69 75  270/ 12/ 16 1021.1R
ST AUGUSTINE FL  1200   49     240/  7/  8 1021.6R


$$



USA.gov is the U.S. government's official web portal to all federal, state and local government web resources and services.